Regional Weather Roundup
Issued by NWS

Home | Current Version | Previous Version | Graphics & Text | Print | Product List | Glossary On
Versions: 1 2 3 4 5 6 7 8 9 10 11 12 13 14 15 16 17 18 19 20 21 22 23 24 25 26 27 28 29 30 31 32 33 34 35 36 37 38 39 40 41 42 43 44 45 46 47 48 49 50
923
ASUS43 KMPX 231910
RWRMN
WEATHER ROUNDUP FOR MINNESOTA
NATIONAL WEATHER SERVICE TWIN CITIES/CHANHASSEN MN
200 PM CDT FRI JUN 23 2017


NOTE: "FAIR" INDICATES FEW OR NO CLOUDS BELOW 12,000 FEET WITH NO
SIGNIFICANT WEATHER AND/OR OBSTRUCTIONS TO VISIBILITY. N/A MEANS
CURRENT SKY AND/OR WEATHER CONDITIONS ARE NOT AVAILABLE.

MNZ060>063-068>070-232000-
   Twin Cities Metro

CITY           SKY/WX    TMP DP  RH WIND       PRES   REMARKS
TWIN CITIES    PTSUNNY   72  50  45 NW15G29   29.80S
ST PAUL        PTSUNNY   71  52  50 NW16      29.80R
CRYSTAL        CLOUDY    70  47  43 NW16G30   29.79
BLAINE         PTSUNNY   72  50  46 NW17      29.80S
LAKEVILLE      CLOUDY    70  52  52 NW13G22   29.82R
EDEN PRAIRIE   PTSUNNY   72  49  44 NW16G23   29.80R
SOUTH ST PAUL  PTSUNNY   71  48  44 NW17G24   29.80R
LAKE ELMO      PTSUNNY   70  52  52 NW14      29.81R
$$
MNZ001>005-007-008-013>017-022>024-027-028-232000-
   Northwest Minnesota

CITY           SKY/WX    TMP DP  RH WIND       PRES   REMARKS
BEMIDJI        PTSUNNY   64  51  62 NW17G30   29.81R
HALLOCK        CLOUDY    59  50  72 NW15      29.87S
ROSEAU           N/A     57  54  88 W16G26    29.82R
WARROAD        CLOUDY    59  55  88 W15G21    29.80R
THIEF RVR FALL CLOUDY    58  48  69 NW21G28   29.87R
CROOKSTON      CLOUDY    61  50  67 N14       29.88
FOSSTON        CLOUDY    61  48  63 NW20G26   29.87R
DETROIT LAKES  PTSUNNY   63  52  67 NW17G25   29.89S
MOORHEAD       PTSUNNY   63  48  59 NW18G26   29.90S
PARK RAPIDS    CLOUDY    64  50  60 W24G35    29.83R
MAHNOMEN       CLOUDY    60  51  73 NW21G31   29.87R
$$
MNZ006-009>011-018-025>026-232000-
   North Central Minnesota

CITY           SKY/WX    TMP DP  RH WIND       PRES   REMARKS
BAUDETTE       CLOUDY    63  54  72 N15       29.76R
FLAG ISLAND    CLOUDY    61  54  77 NW25      29.76R
INTL FALLS     PTSUNNY   65  51  60 NW9       29.72R
WASKISH        LGT RAIN  59  54  82 NW16G26   29.79R
BIG FORK       PTSUNNY   66  52  59 W7        29.74S
LONGVILLE      MOSUNNY   64  54  68 W10G17    29.79S
GRAND RAPIDS   LGT RAIN  63  53  70 NW16G26   29.78S
CRANE LAKE     MOSUNNY   64  48  55 NW9G16    29.71S
ORR            MOSUNNY   66  46  48 NW10G16   29.70R
COOK           MOSUNNY   64  48  55 W10       29.72S
WALKER         MOCLDY    64  53  67 NW15G21   29.80S
$$
MNZ012-019>021-037-232000-
   Northeast Minnesota

CITY           SKY/WX    TMP DP  RH WIND       PRES   REMARKS
DULUTH         PTSUNNY   67  49  52 NW14G21   29.71S
ELY            PTSUNNY   63  48  59 W14G20    29.69R
HIBBING        MOSUNNY   66  49  54 NW12G22   29.72S
EVELETH        SUNNY     65  40  38 NW10G23   29.73S
DULUTH HARBOR  CLOUDY    70  52  52 NW18G24   29.71S
TWO HARBORS    MOSUNNY   72  54  53 NW10G22   29.67F
SILVER BAY     PTSUNNY   66  48  52 NW10G24   29.67R
GRAND MARAIS     N/A     69  51  52 W10G22    29.61R
G MARAIS ARPRT MOSUNNY   61  46  59 W10G21    29.65R
$$
MNZ029>031-032-039>041-046>048-054>057-064-232000-
   West Central Minnesota

CITY           SKY/WX    TMP DP  RH WIND       PRES   REMARKS
FERGUS FALLS   CLOUDY    63  50  63 NW23G30   29.88S
WHEATON        PTSUNNY   64  46  52 W18G24    29.95R
MORRIS         PTSUNNY   66  50  55 NW20G30   29.91R
ALEXANDRIA     CLOUDY    64  52  64 NW23G31   29.90R
ELBOW LAKE     CLOUDY    62  52  70 NW18G25   29.91S
WADENA         DRIZZLE   61  52  72 W13G22    29.85S
GLENWOOD       MOSUNNY   63  54  72 W22G37    29.90R
APPLETON       PTSUNNY   66  48  52 NW25      29.92R
BENSON         CLOUDY    66  50  55 N21G28    29.92S
ORTONVILLE     CLOUDY    64  48  55 NW20G26   29.94S
MADISON        CLOUDY    66  54  63 NW20G29   29.94F
WILLMAR        FAIR      64  54  68 NW20G33   29.90F
$$
MNZ033>034-036-042>043-049>051-058-059-232000-
   Central Minnesota

CITY           SKY/WX    TMP DP  RH WIND       PRES   REMARKS
ST CLOUD       CLOUDY    67  51  56 NW18G24   29.82R
SAUK CENTRE    CLOUDY    63  54  71 NW21G28   29.86F
PAYNESVILLE    CLOUDY    67  54  64 W15G29    29.87S
AITKIN         MOSUNNY   64  54  68 W12G20    29.77F
PINE RIVER     PTSUNNY   66  52  59 NW14G22   29.83S
BRAINERD       LGT RAIN  60  57  89 NW6       29.82R
STAPLES        CLOUDY    63  52  67 NW20G30   29.84R
LONG PRAIRIE   CLOUDY    64  54  68 W20G25    29.86S
LITTLE FALLS   PTSUNNY   64  52  63 W18G25    29.84R
LITCHFIELD     MOSUNNY   66  54  63 NW16G30   29.87R
BUFFALO        CLOUDY    69  50  50 W16       29.83F
MAPLE LAKE     PTSUNNY   69  53  56 NW15G23   29.84S
HUTCHINSON     CLOUDY    68  58  71 W15G21    29.87S
$$
MNZ037-044-045-052-053-232000-
   East Central Minnesota

CITY           SKY/WX    TMP DP  RH WIND       PRES   REMARKS
PRINCETON      MOSUNNY   72  52  49 NW14G23   29.80F
MORA           SUNNY     64  50  59 NW17G29   29.81R
CAMBRIDGE      PTSUNNY   72  54  53 W14G21    29.78S
RUSH CITY      CLOUDY    66  50  55 NW6G18    29.79R
MOOSE LAKE     CLOUDY    63  52  67 NW9G21    29.75R
HINCKLEY       CLOUDY    68  52  56 W8G21     29.78R
CLOQUET        PTSUNNY   66  46  48 W16       29.73S
MCGREGOR       CLOUDY    63  52  67 W14G23    29.77F
$$
MNZ071>073-080-081-089-090-097-098-232000-
   Southwest Minnesota

CITY           SKY/WX    TMP DP  RH WIND       PRES   REMARKS
MONTEVIDEO     PTSUNNY   68  52  56 NW18G29   29.91S
GRANITE FALLS  PTSUNNY   68  55  62 W25G32    29.93F
CANBY          PTSUNNY   65  51  60 W22G30    29.97S
MARSHALL       CLOUDY    65  51  60 NW25G31   29.92F
REDWOOD FALLS  CLOUDY    67  51  56 NW23G33   29.89S
OLIVIA         CLOUDY    68  54  60 NW20G25   29.88F
PIPESTONE      CLOUDY    64  48  55 NW14G26   29.97S
WINDOM         CLOUDY    64  52  63 NW21G32   29.92F
WORTHINGTON    CLOUDY    62  51  67 NW16G26   29.96F
JACKSON        CLOUDY    64  50  59 NW22G32   29.93F
TRACY          CLOUDY    67  54  64 NW21G30   29.93F
SLAYTON        CLOUDY    63  51  65 NW21G29   29.95F
$$
MNZ065>067-074>077-082>085-091>093-232000-
   South Central Minnesota

CITY           SKY/WX    TMP DP  RH WIND       PRES   REMARKS
MANKATO        LGT RAIN  62  56  80 NW18G24   29.87S
NEW ULM        PTSUNNY   66  54  63 NW21G26   29.87F
ST JAMES       PTSUNNY   66  54  63 W20G31    29.90F
FAIRMONT       CLOUDY    68  55  63 NW18G24   29.90
GLENCOE        DRIZZLE   66  58  75 W15G22    29.85S
FARIBAULT      PTSUNNY   66  55  68 W12       29.84S
OWATONNA       PTSUNNY   68  57  68 NW16G22   29.84F
WASECA         PTSUNNY   64  55  72 W17G24    29.87S
ALBERT LEA     CLOUDY    64  55  72 W9G23     29.86S
$$
MNZ078>079-086>088-094>096-232000-
   Southeast Minnesota

CITY           SKY/WX    TMP DP  RH WIND       PRES   REMARKS
ROCHESTER      PTSUNNY   68  57  68 NW16G24   29.83S
RED WING       PTSUNNY   70  50  49 NW7       29.79R
STANTON        CLOUDY    68  53  57 NW15G24   29.81S
DODGE CENTER   CLOUDY    64  54  68 W18       29.84S
WINONA         CLOUDY    70  54  56 NW14G21   29.79S
AUSTIN         CLOUDY    66  54  63 NW17G28   29.84F
PRESTON        CLOUDY    65  53  63 NW14G20   29.82S
$$
ABBREVIATIONS USED IN REMARKS
   TC - TEMPERATURES IN CELSIUS
  WCI - WIND CHILL INDEX
   HX - HEAT INDEX
  VSB - VISIBILITY
$$




USA.gov is the U.S. government's official web portal to all federal, state and local government web resources and services.